User: anonymous   Login
Location: Fort Wayne
(41.1310°N, 85.1290°W)
Time: 11:28:48
(UTC-05:00)
Language:

IDEFIX/ARIANE 42P - Orbit

View from above orbital plane
View from above orbital plane
View from above satellite
View from above satellite

Ground track
Ground track

The orbit data is extracted from the following two-line orbital elements,

1 27422U 02021B   14352.16548412  .00000185  00000-0  89063-4 0  6685
2 27422 098.2782 025.6958 0013182 063.3924 337.5915 14.29107719656418
Epoch (UTC): 18 December 2014 03:58:17
Eccentricity: 0.0013182
inclination: 98.2782°
perigee height: 785 km
apogee height: 804 km
right ascension of ascending node: 25.6958°
argument of perigee: 63.3924°
revolutions per day: 14.29107719
mean anomaly at epoch: 337.5915°
orbit number at epoch: 65641

The dashed part of the orbit path shows where the satellite is in the earth's shadow,  

DLR